This is the latest recevied weather packets stored in our database for station/object KI8L. If no packets are shown the sender has not sent any weather packets the latest 10 day(s).
| Time | Temp. | Humidity | Pressure | Rain* | Wind** | Luminosity | Snow |
|---|---|---|---|---|---|---|---|
| 1777916370 | 21.11° C | 65% | 1009.1 hPa | 0 mm | - | 687 W/m² | - |
| 1777916066 | 20° C | 62% | 1009.1 hPa | 0 mm | - | 691 W/m² | - |
| 1777915764 | 20.56° C | 59% | 1009.4 hPa | 0 mm | - | 689 W/m² | - |
| 1777915156 | 20.56° C | 63% | 1009.3 hPa | 0 mm | - | 688 W/m² | - |
| 1777914854 | 20.56° C | 60% | 1009.3 hPa | 0 mm | - | 686 W/m² | - |
| 1777914551 | 20.56° C | 61% | 1009.3 hPa | 0 mm | - | 687 W/m² | - |
| 1777914247 | 20° C | 59% | 1009.6 hPa | 0 mm | - | 683 W/m² | - |
| 1777913944 | 20° C | 57% | 1009.3 hPa | 0 mm | - | 682 W/m² | - |
| 1777913640 | 20° C | 59% | 1009.6 hPa | 0 mm | - | 676 W/m² | - |
| 1777913337 | 20° C | 65% | 1009.7 hPa | 0 mm | - | 679 W/m² | - |
| 1777913034 | 19.44° C | 58% | 1009.8 hPa | 0 mm | - | 671 W/m² | - |
| 1777912729 | 19.44° C | 60% | 1009.9 hPa | 0 mm | - | 672 W/m² | - |
| 1777912426 | 19.44° C | 58% | 1009.9 hPa | 0 mm | - | 668 W/m² | - |
| 1777912122 | 19.44° C | 60% | 1010 hPa | 0 mm | - | 668 W/m² | - |
| 1777911515 | 19.44° C | 61% | 1010 hPa | 0 mm | - | 647 W/m² | - |
| 1777911212 | 19.44° C | 59% | 1009.9 hPa | 0 mm | - | 650 W/m² | - |
| 1777910909 | 18.89° C | 62% | 1010.1 hPa | 0 mm | - | 648 W/m² | - |
| 1777910303 | 18.89° C | 59% | 1010 hPa | 0 mm | - | 638 W/m² | - |
| 1777910000 | 18.89° C | 59% | 1010.1 hPa | 0 mm | - | 633 W/m² | - |
| 1777909697 | 18.89° C | 60% | 1010.2 hPa | 0 mm | - | 628 W/m² | - |
| 1777909394 | 18.89° C | 63% | 1010 hPa | 0 mm | - | 620 W/m² | - |
| 1777909092 | 18.89° C | 63% | 1010.3 hPa | 0 mm | - | 611 W/m² | - |
| 1777908790 | 18.89° C | 60% | 1010.3 hPa | 0 mm | - | 607 W/m² | - |
| 1777908486 | 18.33° C | 63% | 1010.2 hPa | 0 mm | - | 589 W/m² | - |
| 1777908183 | 18.33° C | 58% | 1010.2 hPa | 0 mm | - | 593 W/m² | - |
* Rain latest hour (hover to see other rain measurements)
** Current wind speed in m/s (hover to see current wind gust speed)